Location: ??
(34.9170°N, 135.5016°E)
Time: 07:43:58
(UTC+00:00)

Explorer 7 - Pass Details

Date: 07 March 2021
Orbit: 484 x 677 km, 50.3° (Epoch: 17 April)

Event Time Altitude Azimuth Distance (km) Brightness Sun altitude
Rises 10:21:57 0° 307° (NW) 2,719 11.4 -17.9°
Reaches altitude 10° 10:24:16 10° 303° (WNW) 1,790 10.4 -18.3°
Maximum altitude 10:28:14 57° 224° (SW) 608 7.1 -19.1°
Enters shadow 10:29:44 33° 161° (SSE) 871 7.6 -19.4°
Drops below altitude 10° 10:31:59 10° 146° (SE) 1,693 - -19.9°
Sets 10:34:08 0° 142° (SE) 2,555 - -20.3°
